Weather History for KDEH - August, 2013

Change the Weather History Date:

Friday, August 9, 2013

  Actual Average Record
Temperature  
Mean Temperature 70 °F -  
Max Temperature 77 °F 81 °F 95 °F (1949)
Min Temperature 60 °F 59 °F 46 °F (1972)
Cooling Degree Days 4    
Growing Degree Days 20 (Base 50)    
Moisture  
Dew Point 58 °F    
Average Humidity 72    
Maximum Humidity 100    
Minimum Humidity 44    
Precipitation  
Precipitation 0.04 in - - ()
Sea Level Pressure  
Sea Level Pressure 30.04 in    
Wind  
Wind Speed 3 mph (NW)    
Max Wind Speed 13 mph    
Max Gust Speed 20 mph    
Visibility 10 miles    
Events Rain    
Averages and records for this station are not official NWS values.
T = Trace of Precipitation, MM = Missing Value Source: NWS Daily Summary

Daily Weather History Graph

Daily Weather History Graph

Search for Another Location

Airport or City:

Trip Planner

Search our weather history database for the weather conditions in past years. The results will help you decide how hot, cold, wet, or windy it might be!

Date:

Astronomy

Aug. 09, 2013 Rise Set
Actual Time 6:06 AM CDT 8:18 PM CDT
Civil Twilight 5:34 AM CDT 8:49 PM CDT
Nautical Twilight 4:55 AM CDT 9:28 PM CDT
Astronomical Twilight 4:12 AM CDT 10:10 PM CDT
Moon 8:59 AM CDT (8/9) 9:20 PM CDT (8/9)
Length of Visible Light 15h 14m
Length of Day
14h 12m
Waxing Crescent, 8% of the Moon is Illuminated
Aug 9
Waxing Crescent
Aug 14
First Quarter
Aug 20
Full
Aug 28
Last Quarter
Sep 5
New

Hourly Weather History & Observations

Time (CDT) Temp. Dew Point Humidity Pressure Visibility Wind Dir Wind Speed Gust Speed Precip Events Conditions
12:15 AM 66.2 °F 62.6 °F 88% 30.00 in 10.0 mi Calm Calm - N/A   Light Drizzle
12:35 AM 64.4 °F 62.6 °F 94% 30.01 in 10.0 mi NW 3.5 mph - N/A   Mostly Cloudy
12:55 AM 62.6 °F 60.8 °F 94% 30.01 in 10.0 mi Calm Calm - N/A   Mostly Cloudy
1:15 AM 62.6 °F 62.6 °F 100% 30.01 in 10.0 mi Calm Calm - N/A   Mostly Cloudy
1:35 AM 62.6 °F 60.8 °F 94% 30.01 in 10.0 mi Calm Calm - N/A   Overcast
1:55 AM 62.6 °F 60.8 °F 94% 30.01 in 10.0 mi Calm Calm - N/A   Overcast
2:15 AM 62.6 °F 62.6 °F 100% 30.01 in 9.0 mi Calm Calm - N/A   Overcast
2:35 AM 62.6 °F 62.6 °F 100% 30.00 in 10.0 mi Calm Calm - N/A   Mostly Cloudy
2:55 AM 64.4 °F 60.8 °F 88% 30.00 in 10.0 mi Calm Calm - N/A   Overcast
3:15 AM 64.4 °F 60.8 °F 88% 30.00 in 10.0 mi Calm Calm - N/A   Overcast
3:35 AM 64.4 °F 60.8 °F 88% 30.00 in 10.0 mi Calm Calm - N/A   Overcast
3:55 AM 64.4 °F 60.8 °F 88% 30.00 in 10.0 mi Calm Calm - N/A   Overcast
4:15 AM 64.4 °F 60.8 °F 88% 30.00 in 10.0 mi Calm Calm - N/A   Overcast
4:35 AM 64.4 °F 59.0 °F 83% 30.00 in 10.0 mi Calm Calm - N/A   Overcast
4:55 AM 64.4 °F 60.8 °F 88% 30.00 in 10.0 mi Calm Calm - N/A   Overcast
5:15 AM 64.4 °F 60.8 °F 88% 30.00 in 10.0 mi Calm Calm - N/A   Overcast
5:35 AM 64.4 °F 60.8 °F 88% 30.01 in 5.0 mi Calm Calm - N/A Rain Light Rain
5:55 AM 64.4 °F 60.8 °F 88% 30.01 in 5.0 mi North 4.6 mph - 0.01 in Rain Light Rain
6:15 AM 62.6 °F 60.8 °F 94% 30.02 in 8.0 mi Calm Calm - N/A Rain Light Rain
6:35 AM 62.6 °F 60.8 °F 94% 30.03 in 9.0 mi Calm Calm - N/A   Overcast
6:55 AM 64.4 °F 60.8 °F 88% 30.03 in 8.0 mi Calm Calm - 0.01 in   Overcast
7:15 AM 62.6 °F 62.6 °F 100% 30.04 in 2.5 mi North 4.6 mph - N/A Rain Light Rain
7:35 AM 62.6 °F 62.6 °F 100% 30.03 in 3.0 mi Calm Calm - N/A Rain Light Rain
7:55 AM 64.4 °F 62.6 °F 94% 30.03 in 6.0 mi Calm Calm - 0.02 in Rain Light Rain
8:15 AM 64.4 °F 64.4 °F 100% 30.03 in 9.0 mi Calm Calm - N/A   Mostly Cloudy
8:35 AM 66.2 °F 64.4 °F 94% 30.03 in 9.0 mi NNW 3.5 mph - N/A   Scattered Clouds
8:55 AM 66.2 °F 64.4 °F 94% 30.03 in 10.0 mi NW 4.6 mph - N/A   Clear
9:15 AM 68.0 °F 62.6 °F 83% 30.04 in 10.0 mi NNW 5.8 mph 11.5 mph N/A   Clear
9:35 AM 69.8 °F 62.6 °F 78% 30.04 in 10.0 mi Variable 6.9 mph - N/A   Partly Cloudy
9:55 AM 69.8 °F 60.8 °F 73% 30.04 in 10.0 mi NW 8.1 mph - N/A   Clear
10:15 AM 71.6 °F 62.6 °F 73% 30.05 in 10.0 mi Variable 6.9 mph - N/A   Clear
10:35 AM 71.6 °F 60.8 °F 69% 30.04 in 10.0 mi NW 6.9 mph - N/A   Clear
10:55 AM 71.6 °F 59.0 °F 64% 30.04 in 10.0 mi NNW 11.5 mph 19.6 mph N/A   Partly Cloudy
11:15 AM 73.4 °F 60.8 °F 65% 30.04 in 10.0 mi NW 8.1 mph - N/A   Partly Cloudy
11:35 AM 73.4 °F 60.8 °F 65% 30.04 in 10.0 mi NNW 10.4 mph 17.3 mph N/A   Scattered Clouds
11:55 AM 73.4 °F 57.2 °F 57% 30.04 in 10.0 mi NNW 9.2 mph 17.3 mph N/A   Scattered Clouds
12:15 PM 73.4 °F 59.0 °F 61% 30.04 in 10.0 mi North 12.7 mph 18.4 mph N/A   Partly Cloudy
12:35 PM 73.4 °F 55.4 °F 53% 30.04 in 10.0 mi NNW 10.4 mph 18.4 mph N/A   Partly Cloudy
12:55 PM 75.2 °F 55.4 °F 50% 30.04 in 10.0 mi NNW 10.4 mph 16.1 mph N/A   Clear
1:15 PM 75.2 °F 53.6 °F 47% 30.04 in 10.0 mi NNW 9.2 mph 16.1 mph N/A   Clear
1:35 PM 75.2 °F 53.6 °F 47% 30.05 in 10.0 mi NW 12.7 mph - N/A   Clear
1:55 PM 75.2 °F 53.6 °F 47% 30.05 in 10.0 mi NW 8.1 mph 15.0 mph N/A   Clear
2:15 PM 75.2 °F 51.8 °F 44% 30.05 in 10.0 mi NNW 10.4 mph - N/A   Clear
2:35 PM 75.2 °F 53.6 °F 47% 30.05 in 10.0 mi NNW 8.1 mph 16.1 mph N/A   Clear
2:55 PM 75.2 °F 53.6 °F 47% 30.04 in 10.0 mi Variable 6.9 mph 13.8 mph N/A   Clear
3:15 PM 75.2 °F 53.6 °F 47% 30.04 in 10.0 mi NNW 9.2 mph - N/A   Clear
3:35 PM 77.0 °F 53.6 °F 44% 30.04 in 10.0 mi NW 11.5 mph 18.4 mph N/A   Clear
3:55 PM 75.2 °F 53.6 °F 47% 30.04 in 10.0 mi Variable 6.9 mph 15.0 mph N/A   Clear
4:15 PM 77.0 °F 55.4 °F 47% 30.04 in 10.0 mi NW 8.1 mph - N/A   Partly Cloudy
4:35 PM 77.0 °F 55.4 °F 47% 30.04 in 10.0 mi NW 10.4 mph 17.3 mph N/A   Partly Cloudy
4:55 PM 75.2 °F 55.4 °F 50% 30.04 in 10.0 mi NW 11.5 mph - N/A   Clear
5:15 PM 73.4 °F 55.4 °F 53% 30.04 in 10.0 mi Calm Calm - N/A   Clear
5:35 PM 73.4 °F 57.2 °F 57% 30.04 in 10.0 mi Variable 5.8 mph 11.5 mph N/A   Clear
5:55 PM 75.2 °F 55.4 °F 50% 30.04 in 10.0 mi WNW 9.2 mph - N/A   Clear
6:15 PM 73.4 °F 55.4 °F 53% 30.05 in 10.0 mi NW 8.1 mph - N/A   Clear
6:35 PM 73.4 °F 55.4 °F 53% 30.05 in 10.0 mi NW 6.9 mph 12.7 mph N/A   Clear
6:55 PM 73.4 °F 55.4 °F 53% 30.05 in 10.0 mi NW 4.6 mph - N/A   Light Drizzle
7:15 PM 71.6 °F 55.4 °F 57% 30.05 in 10.0 mi Variable 6.9 mph - N/A   Light Drizzle
7:35 PM 71.6 °F 55.4 °F 57% 30.06 in 10.0 mi NW 5.8 mph - N/A   Partly Cloudy
7:55 PM 69.8 °F 55.4 °F 60% 30.06 in 10.0 mi NW 4.6 mph - N/A   Light Drizzle
8:15 PM 69.8 °F 55.4 °F 60% 30.06 in 10.0 mi Calm Calm - N/A   Clear
8:35 PM 68.0 °F 55.4 °F 64% 30.07 in 10.0 mi WNW 4.6 mph - N/A   Clear
8:55 PM 66.2 °F 57.2 °F 73% 30.08 in 10.0 mi NW 3.5 mph - N/A   Clear
9:15 PM 66.2 °F 57.2 °F 73% 30.08 in 10.0 mi Calm Calm - N/A   Clear
9:35 PM 64.4 °F 57.2 °F 77% 30.09 in 10.0 mi NW 5.8 mph - N/A   Clear
9:55 PM 64.4 °F 55.4 °F 73% 30.10 in 10.0 mi Calm Calm - N/A   Clear
10:15 PM 64.4 °F 55.4 °F 73% 30.10 in 10.0 mi NNW 3.5 mph - N/A   Partly Cloudy
10:35 PM 62.6 °F 55.4 °F 77% 30.11 in 10.0 mi Calm Calm - N/A   Clear
10:55 PM 62.6 °F 53.6 °F 72% 30.11 in 10.0 mi Calm Calm - N/A   Clear
11:15 PM 62.6 °F 53.6 °F 72% 30.12 in 10.0 mi Calm Calm - N/A   Clear
11:35 PM 62.6 °F 53.6 °F 72% 30.12 in 10.0 mi Calm Calm - N/A   Clear
11:55 PM 60.8 °F 53.6 °F 77% 30.12 in 10.0 mi Calm Calm - N/A   Partly Cloudy